• In United Kingdom
  • List of Countries
  • For 7 days
  • Water Temperature
  • Satellite Maps
  • Weather Map
  • Weather Widgets
  • user-avatar
    Login

    Hourly Weather Pabna

    Today, 18 February, Sunday

    Time Temperature Precipitation Wind Pressure Humidity
    00:00 +21°C° 0 mm 0 mps 756 mmHg 42%
    01:00 +23°C° 0 mm 1 mps 756 mmHg 42%
    02:00 +21°C° 0 mm 2 mps 756 mmHg 42%
    03:00 +21°C° 0 mm 2 mps 756 mmHg 42%
    04:00 +21°C° 0 mm 2 mps 756 mmHg 44%
    05:00 +20°C° 0 mm 2 mps 756 mmHg 46%
    06:00 +20°C° 0 mm 1 mps 756 mmHg 52%
    07:00 +22°C° 0 mm 1 mps 757 mmHg 48%
    08:00 +24°C° 0 mm 1 mps 757 mmHg 44%
    09:00 +25°C° 0 mm 1 mps 758 mmHg 40%
    10:00 +27°C° 0 mm 2 mps 758 mmHg 37%
    11:00 +29°C° 0 mm 2 mps 757 mmHg 33%
    12:00 +30°C° 0 mm 1 mps 757 mmHg 29%
    13:00 +31°C° 0 mm 2 mps 757 mmHg 27%
    14:00 +31°C° 0 mm 2 mps 756 mmHg 25%
    15:00 +33°C° 0 mm 3 mps 756 mmHg 23%
    16:00 +31°C° 0 mm 3 mps 756 mmHg 25%
    17:00 +29°C° 0 mm 2 mps 755 mmHg 27%
    18:00 +27°C° 0 mm 1 mps 756 mmHg 31%
    19:00 +26°C° 0 mm 1 mps 756 mmHg 32%
    20:00 +25°C° 0 mm 1 mps 756 mmHg 33%
    21:00 +25°C° 0 mm 1 mps 757 mmHg 35%
    22:00 +24°C° 0 mm 1 mps 757 mmHg 36%
    23:00 +24°C° 0 mm 1 mps 757 mmHg 37%

    Tomorrow, 19 February, Monday

    Time Temperature Precipitation Wind Pressure Humidity
    00:00 +23°C° 0 mm 1 mps 757 mmHg 38%
    01:00 +23°C° 0 mm 1 mps 757 mmHg 39%
    02:00 +22°C° 0 mm 1 mps 757 mmHg 40%
    03:00 +22°C° 0 mm 1 mps 757 mmHg 42%
    04:00 +21°C° 0 mm 1 mps 757 mmHg 43%
    05:00 +21°C° 0 mm 1 mps 757 mmHg 45%
    06:00 +21°C° 0 mm 1 mps 757 mmHg 46%
    07:00 +22°C° 0 mm 1 mps 758 mmHg 42%
    08:00 +24°C° 0 mm 1 mps 758 mmHg 38%
    09:00 +26°C° 0 mm 1 mps 759 mmHg 34%
    10:00 +28°C° 0 mm 1 mps 759 mmHg 31%
    11:00 +30°C° 0 mm 1 mps 759 mmHg 27%
    12:00 +32°C° 0 mm 1 mps 758 mmHg 24%
    13:00 +32°C° 0 mm 2 mps 757 mmHg 22%
    14:00 +34°C° 0 mm 2 mps 757 mmHg 20%
    15:00 +35°C° 0 mm 3 mps 756 mmHg 18%
    16:00 +32°C° 0 mm 2 mps 756 mmHg 20%
    17:00 +31°C° 0 mm 2 mps 756 mmHg 23%
    18:00 +29°C° 0 mm 2 mps 755 mmHg 25%
    19:00 +28°C° 0 mm 1 mps 756 mmHg 26%
    20:00 +27°C° 0 mm 1 mps 756 mmHg 27%
    21:00 +27°C° 0 mm 1 mps 757 mmHg 27%
    22:00 +26°C° 0 mm 1 mps 757 mmHg 29%
    23:00 +25°C° 0 mm 2 mps 757 mmHg 30%

    Day after tomorrow, 20 February, Tuesday

    Time Temperature Precipitation Wind Pressure Humidity
    00:00 +25°C° 0 mm 2 mps 757 mmHg 32%
    01:00 +24°C° 0 mm 2 mps 757 mmHg 34%
    02:00 +23°C° 0 mm 2 mps 757 mmHg 37%
    03:00 +23°C° 0 mm 1 mps 757 mmHg 39%
    04:00 +22°C° 0 mm 1 mps 757 mmHg 40%
    05:00 +22°C° 0 mm 1 mps 757 mmHg 41%
    06:00 +21°C° 0 mm 2 mps 757 mmHg 42%
    07:00 +24°C° 0 mm 2 mps 758 mmHg 39%
    08:00 +25°C° 0 mm 2 mps 758 mmHg 37%
    09:00 +27°C° 0 mm 2 mps 759 mmHg 34%
    10:00 +29°C° 0 mm 2 mps 759 mmHg 31%
    11:00 +31°C° 0 mm 1 mps 758 mmHg 28%
    12:00 +32°C° 0 mm 1 mps 758 mmHg 24%
    13:00 +33°C° 0 mm 1 mps 757 mmHg 23%
    14:00 +33°C° 0 mm 1 mps 756 mmHg 22%
    15:00 +34°C° 0 mm 1 mps 755 mmHg 21%
    16:00 +33°C° 0 mm 1 mps 755 mmHg 23%
    17:00 +31°C° 0 mm 1 mps 755 mmHg 26%
    18:00 +30°C° 0 mm 1 mps 754 mmHg 28%
    19:00 +29°C° 0 mm 1 mps 755 mmHg 29%
    20:00 +28°C° 0 mm 1 mps 755 mmHg 30%
    21:00 +27°C° 0 mm 2 mps 756 mmHg 31%
    22:00 +27°C° 0 mm 2 mps 756 mmHg 32%
    23:00 +26°C° 0 mm 2 mps 756 mmHg 33%

    21 February, Wednesday

    Time Temperature Precipitation Wind Pressure Humidity
    00:00 +25°C° 0 mm 2 mps 756 mmHg 35%
    01:00 +25°C° 0 mm 2 mps 755 mmHg 36%
    02:00 +24°C° 0 mm 2 mps 755 mmHg 38%
    03:00 +24°C° 0 mm 2 mps 755 mmHg 40%
    04:00 +23°C° 0 mm 1 mps 755 mmHg 41%
    05:00 +23°C° 0 mm 1 mps 755 mmHg 43%
    06:00 +22°C° 0 mm 1 mps 755 mmHg 44%
    07:00 +24°C° 0 mm 2 mps 756 mmHg 41%
    08:00 +26°C° 0 mm 2 mps 757 mmHg 38%
    09:00 +28°C° 0 mm 2 mps 757 mmHg 35%
    10:00 +30°C° 0 mm 2 mps 757 mmHg 31%
    11:00 +31°C° 0 mm 2 mps 757 mmHg 28%
    12:00 +34°C° 0 mm 2 mps 756 mmHg 25%
    13:00 +35°C° 0 mm 2 mps 755 mmHg 23%
    14:00 +35°C° 0 mm 2 mps 754 mmHg 22%
    15:00 +36°C° 0 mm 2 mps 753 mmHg 21%
    16:00 +35°C° 0 mm 2 mps 753 mmHg 23%
    17:00 +32°C° 0 mm 2 mps 753 mmHg 25%
    18:00 +31°C° 0 mm 2 mps 753 mmHg 27%
    19:00 +30°C° 0 mm 2 mps 753 mmHg 28%
    20:00 +29°C° 0 mm 2 mps 754 mmHg 29%
    21:00 +28°C° 0 mm 2 mps 755 mmHg 29%
    22:00 +27°C° 0 mm 2 mps 755 mmHg 31%
    23:00 +27°C° 0 mm 2 mps 755 mmHg 33%

    22 February, Thursday

    Time Temperature Precipitation Wind Pressure Humidity
    00:00 +26°C° 0 mm 2 mps 755 mmHg 34%
    01:00 +25°C° 0 mm 2 mps 755 mmHg 36%
    02:00 +24°C° 0 mm 2 mps 754 mmHg 39%
    03:00 +24°C° 0 mm 2 mps 754 mmHg 41%
    04:00 +23°C° 0 mm 2 mps 754 mmHg 43%
    05:00 +23°C° 0 mm 2 mps 754 mmHg 45%
    06:00 +23°C° 0 mm 2 mps 755 mmHg 46%
    07:00 +24°C° 0 mm 2 mps 755 mmHg 44%
    08:00 +26°C° 0 mm 2 mps 756 mmHg 41%
    09:00 +28°C° 0 mm 3 mps 757 mmHg 39%
    10:00 +29°C° 0 mm 2 mps 756 mmHg 35%
    11:00 +31°C° 0 mm 2 mps 756 mmHg 31%
    12:00 +33°C° 0 mm 1 mps 756 mmHg 27%
    13:00 +35°C° 0 mm 2 mps 755 mmHg 24%
    14:00 +35°C° 0 mm 2 mps 754 mmHg 22%
    15:00 +36°C° 0 mm 2 mps 753 mmHg 19%
    16:00 +34°C° 0 mm 2 mps 753 mmHg 21%
    17:00 +32°C° 0 mm 2 mps 753 mmHg 22%
    18:00 +31°C° 0 mm 2 mps 753 mmHg 24%
    19:00 +30°C° 0 mm 2 mps 754 mmHg 24%
    20:00 +29°C° 0 mm 2 mps 754 mmHg 24%
    21:00 +28°C° 0 mm 2 mps 755 mmHg 25%
    22:00 +27°C° 0 mm 2 mps 755 mmHg 26%
    23:00 +26°C° 0 mm 2 mps 755 mmHg 27%

    23 February, Friday

    Time Temperature Precipitation Wind Pressure Humidity
    00:00 +26°C° 0 mm 2 mps 755 mmHg 28%
    01:00 +25°C° 0 mm 2 mps 755 mmHg 29%
    02:00 +24°C° 0 mm 2 mps 755 mmHg 31%
    03:00 +24°C° 0 mm 2 mps 755 mmHg 33%
    04:00 +23°C° 0 mm 2 mps 755 mmHg 35%
    05:00 +23°C° 0 mm 2 mps 755 mmHg 37%
    06:00 +22°C° 0 mm 1 mps 756 mmHg 39%
    07:00 +24°C° 0 mm 1 mps 756 mmHg 36%
    08:00 +26°C° 0 mm 1 mps 757 mmHg 33%
    09:00 +28°C° 0 mm 1 mps 757 mmHg 30%
    10:00 +30°C° 0 mm 2 mps 757 mmHg 27%
    11:00 +33°C° 0 mm 3 mps 757 mmHg 23%
    12:00 +35°C° 0 mm 4 mps 756 mmHg 20%
    13:00 +35°C° 0 mm 5 mps 756 mmHg 19%
    14:00 +35°C° 0 mm 5 mps 755 mmHg 18%
    15:00 +36°C° 0 mm 6 mps 754 mmHg 17%
    16:00 +34°C° 0 mm 5 mps 754 mmHg 20%
    17:00 +33°C° 0 mm 4 mps 754 mmHg 23%
    18:00 +30°C° 0 mm 3 mps 754 mmHg 25%
    19:00 +29°C° 0 mm 2 mps 755 mmHg 26%
    20:00 +28°C° 0 mm 2 mps 755 mmHg 28%
    21:00 +27°C° 0 mm 2 mps 756 mmHg 29%
    22:00 +27°C° 0 mm 2 mps 756 mmHg 31%
    23:00 +26°C° 0 mm 2 mps 756 mmHg 32%
    Show more